Proserpine, Australia

12:48 PM AEST on September 20, 2017 (GMT +1000)
Whitsunday

Weather History for YBPN - January, 2014

Change the Weather History Date:

Saturday, January 11, 2014

  Actual Average Record
Temperature  
Mean Temperature 78 °F -  
Max Temperature 84 °F - - ()
Min Temperature 72 °F - - ()
Cooling Degree Days 13    
Growing Degree Days 28 (Base 50)    
Moisture  
Dew Point 72 °F    
Average Humidity 83    
Maximum Humidity 100    
Minimum Humidity 53    
Precipitation  
Precipitation 0.16 in - - ()
Sea Level Pressure  
Sea Level Pressure 29.91 in    
Wind  
Wind Speed 9 mph ()    
Max Wind Speed 17 mph    
Max Gust Speed -    
Visibility 5.9 miles    
Events      
T = Trace of Precipitation, MM = Missing Value Source: Averaged Metar Reports

Daily Weather History Graph

Daily Weather History Graph

Search for Another Location

Airport or City:

Trip Planner

Search our weather history database for the weather conditions in past years. The results will help you decide how hot, cold, wet, or windy it might be!

Date:

Astronomy

Jan. 11, 2014 Rise Set
Actual Time 5:35 AM AEST 6:51 PM AEST
Civil Twilight 5:10 AM AEST 7:16 PM AEST
Nautical Twilight 4:41 AM AEST 7:45 PM AEST
Astronomical Twilight 4:12 AM AEST 8:14 PM AEST
Moon 2:48 PM AEST (1/11) 1:29 AM AEST (1/11)
Length of Visible Light 14h 05m
Length of Day
13h 16m
Waxing Gibbous, 78% of the Moon is Illuminated
Jan 11
Waxing Gibbous
Jan 16
Full
Jan 24
Last Quarter
Jan 31
New
Feb 7
First Quarter

Hourly Weather History & Observations

Time (AEST) Temp. Heat Index Dew Point Humidity Pressure Visibility Wind Dir Wind Speed Gust Speed Precip Events Conditions
12:00 AM 74 °F - 73 °F 96% 29.94 in 3 mi WNW 6.9 mph - -   Overcast
12:00 AM 73.4 °F - 73.4 °F 100% 29.92 in 3.7 mi WNW 6.9 mph - N/A   Overcast
1:00 AM 73.4 °F - 73.4 °F 100% 29.92 in 1.3 mi SSE 5.8 mph - N/A   Overcast
2:03 AM 73.4 °F - 73.4 °F 100% 29.89 in - SSW 3.5 mph - N/A   Overcast
3:00 AM 74 °F - 73 °F 97% 29.89 in - South 6.9 mph - -   Overcast
3:00 AM 73.4 °F - 73.4 °F 100% 29.89 in 6.2 mi South 6.9 mph - N/A   Overcast
4:00 AM 73.4 °F - 73.4 °F 100% 29.89 in 6.2 mi South 8.1 mph - N/A   Mostly Cloudy
5:00 AM 73.4 °F - 71.6 °F 94% 29.89 in 6.2 mi South 6.9 mph - N/A   Scattered Clouds
6:00 AM 74 °F - 72 °F 92% 29.91 in - South 6.9 mph - -  
6:00 AM 75.2 °F - 71.6 °F 89% 29.89 in 6.2 mi South 6.9 mph - N/A   Unknown
7:00 AM 77.0 °F - 73.4 °F 89% 29.92 in 6.2 mi South 8.1 mph - N/A   Unknown
8:00 AM 78.8 °F - 73.4 °F 83% 29.92 in 6.2 mi SSE 8.1 mph - N/A   Mostly Cloudy
9:00 AM 83 °F - 69 °F 54% 29.94 in 11 mi East 16.1 mph - -   Partly Cloudy
9:00 AM 82.4 °F 86.3 °F 69.8 °F 66% 29.92 in 6.2 mi ESE 16.1 mph - N/A   Unknown
10:00 AM 82.4 °F 86.3 °F 69.8 °F 66% 29.95 in 6.2 mi East 13.8 mph - N/A   Mostly Cloudy
11:00 AM 84.2 °F 89.6 °F 71.6 °F 66% 29.92 in 6.2 mi ESE 13.8 mph - N/A   Mostly Cloudy
12:00 PM 84 °F - 69 °F 53% 29.93 in - ESE 16.1 mph - -  
12:00 PM 84.2 °F 88.4 °F 69.8 °F 62% 29.92 in 6.2 mi ESE 16.1 mph - N/A   Mostly Cloudy
1:00 PM 84.2 °F 89.6 °F 71.6 °F 66% 29.92 in 6.2 mi ESE 15.0 mph - N/A   Mostly Cloudy
2:00 PM 80.6 °F 84.6 °F 71.6 °F 74% 29.89 in 6.2 mi ESE 17.3 mph - N/A   Overcast
3:00 PM 84 °F - 71 °F 57% 29.87 in 12 mi SE 16.1 mph - -   Partly Cloudy
3:00 PM 84.2 °F 89.6 °F 71.6 °F 66% 29.86 in 6.2 mi SE 16.1 mph - N/A   Mostly Cloudy
4:00 PM 82.4 °F 88.2 °F 73.4 °F 74% 29.86 in 6.2 mi ESE 17.3 mph - N/A   Overcast
5:00 PM 80.6 °F 84.6 °F 71.6 °F 74% 29.86 in 6.2 mi SSE 13.8 mph - N/A   Mostly Cloudy
6:00 PM 75 °F - 73 °F 90% 29.88 in 4 mi South 10.4 mph - -   Overcast
6:00 PM 75.2 °F - 73.4 °F 94% 29.89 in 3.7 mi South 9.2 mph - N/A   Overcast
7:00 PM 75.2 °F - 73.4 °F 94% 29.89 in 6.2 mi South 8.1 mph - N/A   Overcast
8:05 PM 73.4 °F - 71.6 °F 94% 29.92 in 3.7 mi South 11.5 mph - N/A   Overcast
9:00 PM 74 °F - 72 °F 92% 29.93 in - SSW 6.9 mph - -  
9:00 PM 73.4 °F - 71.6 °F 94% 29.92 in 6.2 mi South 6.9 mph - N/A   Scattered Clouds
10:00 PM 73.4 °F - 71.6 °F 94% 29.92 in 6.2 mi South 8.1 mph - N/A   Scattered Clouds
11:00 PM 75.2 °F - 71.6 °F 89% 29.92 in 6.2 mi South 9.2 mph - N/A   Scattered Clouds